Location: Palomar Mountain Lodge
(33.3110°N, 116.8495°W)
Time: 22:42:55
(UTC-08:00)

Cosmos 2219 - Pass Details

Date: 13 December 2025
Orbit: 831 x 860 km, 71.1° (Epoch: 13 January)

Event Time Altitude Azimuth Distance (km) Brightness Sun altitude
Rises 18:11:35 0° 341° (NNW) 3,431 6.4 -18.4°
Reaches altitude 10° 18:14:04 10° 344° (NNW) 2,494 5.6 -18.9°
Maximum altitude 18:19:48 72° 68° (ENE) 902 3.1 -20.0°
Drops below altitude 10° 18:25:30 10° 153° (SSE) 2,483 5.5 -21.2°
Sets 18:27:57 0° 156° (SSE) 3,414 6.3 -21.7°
